Regional Weather Roundup
Issued by NWS

Home | Current Version | Previous Version | Graphics & Text | Print | Product List | Glossary On
Versions: 1 2 3 4 5 6 7 8 9 10 11 12 13 14 15 16 17 18 19 20 21 22 23 24 25 26 27 28 29 30 31 32 33 34 35 36 37 38 39 40 41 42 43 44 45 46 47 48 49 50
000
ASUS45 KBOU 190810
RWRCO

WEATHER ROUNDUP FOR COLORADO
NATIONAL WEATHER SERVICE DENVER/BOULDER CO
200 AM MDT THU APR 19 2018

NOTE: "FAIR" INDICATES FEW OR NO CLOUDS BELOW 12000 FEET WITH NO
SIGNIFICANT WEATHER AND/OR OBSTRUCTIONS TO VISIBILITY.

COZ001>005-013-030-031-190900-
...NORTHWEST COLORADO...

CITY           SKY/WX    TMP DP  RH WIND       PRES   REMARKS
CRAIG          FAIR      28  22  78 S5        30.12R WCI  23
HAYDEN         FAIR      35  17  47 E10       30.13S WCI  27
MEEKER         FAIR      29  22  75 CALM      30.11S
RANGELY        FAIR      31  14  50 E3        30.08S
RABBIT EARS PA FAIR      27   5  39 S7        30.21S WCI  19
STEAMBOAT SPGS FAIR      31  16  55 CALM      30.14S
WALDEN         FAIR      23  10  58 E3        30.19S
$$

COZ006>008-011-190900-
...WEST CENTRAL VALLEYS...

CITY           SKY/WX    TMP DP  RH WIND       PRES   REMARKS
GRAND JUNCTION FAIR      43  11  27 E12       30.06F
MONTROSE       FAIR      34  11  38 SE5       30.12S WCI  30
EAGLE          FAIR      29  19  66 E5        30.19R WCI  24
RIFLE          FAIR      34  25  69 CALM      30.11S
DELTA          FAIR      40   5  24 CALM      30.10F
NUCLA          FAIR      36   1  23 E7        30.12F
$$

COZ017>023-064>068-190900-
...SOUTHWEST COLORADO...

CITY           SKY/WX    TMP DP  RH WIND       PRES   REMARKS
DURANGO        FAIR      25  -1  32 NE5       30.18R WCI  19
CORTEZ         FAIR      31   0  26 CALM      30.09F
PAGOSA SPRINGS FAIR      29  -1  28 CALM      30.24S
TELLURIDE      FAIR      40  -2  17 SE3       30.22F
WOLF CREEK PAS FAIR      27  -8  22 S22G30    30.36F WCI  12
$$

COZ009-010-012-014-032>034-037-058>063-190900-
...CENTRAL COLORADO...

CITY           SKY/WX    TMP DP  RH WIND       PRES   REMARKS
ASPEN          FAIR      28  17  63 S5        30.14F WCI  23
BUENA VISTA    FAIR      24   0  35 W6        30.29F WCI  17
COPPER MTN     NOT AVBL
BERTHOUD PASS  FAIR      19   9  63 S15G26    30.28F WCI   5
COTTONWOOD PAS FAIR      34   0  23 SE9       30.30F WCI  26
GUNNISON       FAIR      27  12  53 CALM      30.22S
GRANBY         FAIR      26  11  53 CALM      30.21F
KREMMLING      FAIR      30  19  64 N5        30.19S WCI  25
LEADVILLE      FAIR      21   6  52 NE6       30.25F WCI  13
MONARCH PASS   FAIR      28  -6  22 S17       30.43F WCI  16
SALIDA         FAIR      32   2  28 W7        30.37S WCI  26
SUNLIGHT       FAIR      27   7  43 S8        30.27S WCI  18
WILKERSON PASS MOCLDY    21  -4  33 SW8G21    30.33F WCI  12
$$

COZ069>075-190900-
...SAN LUIS VALLEY/SANGRE DE CRISTO MOUNTAINS...

CITY           SKY/WX    TMP DP  RH WIND       PRES   REMARKS
ALAMOSA        FAIR      29   6  38 SE9       30.24R WCI  20
DEL NORTE      FAIR      26  -2  30 W5        30.25S WCI  20
LA VETA PASS   FAIR      32   5  32 SW15G25   30.40S WCI  22
SAGUACHE       NOT AVBL
$$

COZ035-036-038>040-190900-
...NORTHERN COLORADO FRONT RANGE...

CITY           SKY/WX    TMP DP  RH WIND       PRES   REMARKS
DENVER INTL AP FAIR      32  15  49 SE13      30.26F WCI  22
AURORA         CLEAR     34  15  46 S12       30.27F WCI  25
FRONT RANGE AP FAIR      38  16  42 S15       30.28F
ERIE MUNI ARPT FAIR      32  18  57 CALM      30.32F
BOULDER MUN AP FAIR      37  16  41 CALM      30.26F
CENTENNIAL     FAIR      36  15  42 S12       30.26F
BROOMFIELD     FAIR      37  12  35 E7        30.26F
FORT COLLINS   FAIR      37  16  42 SE5       30.28F
LONGMONT       FAIR      34  18  52 NW6       30.29F WCI  29
$$

COZ041-046-047-076>085-087-088-190900-
...PIKES PEAK/PALMER DIVIDE AND SOUTHERN FOOTHILLS...

CITY           SKY/WX    TMP DP  RH WIND       PRES   REMARKS
COLO. SPRINGS  FAIR      38  12  34 S5        30.32S
A. F. ACADEMY  FAIR      34   9  34 SE13      30.29F WCI  25
SCHRIEVER AFB  NOT AVBL
CHEYENNE MTN   FAIR      36  11  35 S15       30.25F
ELLICOTT         N/A    N/A N/A N/A SE8       30.29S
FALCON         FAIR      29  11  46 SW6       30.32S WCI  23
FORT CARSON    FAIR      37  11  34 SW8       30.30S
LIMON          FAIR      22  15  75 N3        30.30F
MONUMENT HILL  FAIR      23  12  63 S10       30.31S WCI  12
CANON CITY     FAIR      39  12  33 NE9       30.29S
WALSENBURG     NOT AVBL
TRINIDAD       FAIR      40   6  24 SE12      30.26F
$$

COZ042>045-048>051-090-091-190900-
...NORTHEAST COLORADO...

CITY           SKY/WX    TMP DP  RH WIND       PRES   REMARKS
GREELEY ARPT   FAIR      28  16  60 CALM      30.29F
AKRON          FAIR      34  20  56 SE8       30.29S WCI  27
BURLINGTON     FAIR      29  20  69 S10       30.32R WCI  20
WRAY           FAIR      34  27  75 E5        30.33R WCI  30
YUMA           FAIR      32  19  59 CALM      30.31R
STERLING       FAIR      30  23  74 CALM      30.29S
HOLYOKE        FAIR      32  27  80 S7        30.32S WCI  26
FORT MORGAN    FAIR      32  14  48 CALM      30.29S
$$

COZ086-089-092>099-190900-
...SOUTHEAST COLORADO...

CITY           SKY/WX    TMP DP  RH WIND       PRES   REMARKS
PUEBLO         FAIR      41  14  33 E12       30.27F
LA JUNTA       FAIR      36  13  38 E7        30.29S
LAMAR          FAIR      33  16  49 CALM      30.29S
SPRINGFIELD      N/A     27   8  44 SW3       30.31R
$$



USA.gov is the U.S. government's official web portal to all federal, state and local government web resources and services.